Regional Weather Roundup
Issued by NWS

Home | Current Version | Previous Version | Text Only | Print | Product List | Glossary Off
Versions: 1 2 3 4 5 6 7 8 9 10 11 12 13 14 15 16 17 18 19 20 21 22 23 24 25 26 27 28 29 30 31 32 33 34 35 36 37 38 39 40 41 42 43 44 45 46 47 48 49 50

000
ASUS43 KMPX 012001
RWRMN
WEATHER ROUNDUP FOR MINNESOTA
NATIONAL WEATHER SERVICE TWIN CITIES/CHANHASSEN MN
300 PM CDT SUN MAY 01 2016


NOTE: "FAIR" INDICATES FEW OR NO CLOUDS BELOW 12,000 FEET WITH NO
SIGNIFICANT WEATHER AND/OR OBSTRUCTIONS TO VISIBILITY. N/A MEANS
CURRENT SKY AND/OR WEATHER CONDITIONS ARE NOT AVAILABLE.

MNZ060>063-068>070-012100-
   Twin Cities Metro

CITY           SKY/WX    TMP DP  RH WIND       PRES   REMARKS
TWIN CITIES    PTSUNNY   60  35  39 NE8G18    30.11F
ST PAUL        MOSUNNY   60  36  40 NE15G22   30.11F
CRYSTAL        MOSUNNY   62  34  35 N13       30.10F
BLAINE         MOSUNNY   63  32  31 NE16      30.11F
EDEN PRAIRIE   MOSUNNY   61  33  35 N8G18     30.10F
SOUTH ST PAUL  MOSUNNY   60  33  36 NE8       30.10F
LAKE ELMO      PTSUNNY   61  37  41 NE13G23   30.11F
$$
MNZ001>005-007-008-013>017-022>024-027-028-012100-
   Northwest Minnesota

CITY           SKY/WX    TMP DP  RH WIND       PRES   REMARKS
BEMIDJI        SUNNY     58  31  35 NW7       30.18F
HALLOCK        SUNNY     64  19  17 NE5       30.20F
ROSEAU         SUNNY     61  34  36 E6        30.21F
WARROAD        SUNNY     55  28  35 E7        30.23F
THIEF RVR FALL SUNNY     61  28  29 NW7       30.21F
CROOKSTON      SUNNY     63  28  27 NW6       30.20F
FOSSTON        SUNNY     63  28  27 NE7       30.20F
DETROIT LAKES  SUNNY     59  30  33 NE6       30.19F
MOORHEAD       SUNNY     61  28  29 N8        30.20F
PARK RAPIDS    SUNNY     60  27  28 E10G16    30.17F
MAHNOMEN       FAIR      59  29  31 NE9       30.19F
$$
MNZ006-009>011-018-025>026-012100-
   North Central Minnesota

CITY           SKY/WX    TMP DP  RH WIND       PRES   REMARKS
BAUDETTE       SUNNY     59  26  28 NW14      30.20F
FLAG ISLAND    SUNNY     54  30  40 CALM      30.21F
INTL FALLS     SUNNY     57  29  34 N12       30.20F
WASKISH        SUNNY     61  30  31 N8        30.19F
BIG FORK       SUNNY     61  30  31 NE5       30.17F
LONGVILLE      SUNNY     61  28  29 NW5       30.16F
GRAND RAPIDS   SUNNY     57  27  30 E7        30.18F
CRANE LAKE     SUNNY     55  27  33 NW3       30.21F
ORR            SUNNY     61  25  25 W7        30.16F
COOK           SUNNY     57  28  33 E7        30.18F
WALKER         FAIR      56  31  39 E8        30.18F
$$
MNZ012-019>021-037-012100-
   Northeast Minnesota

CITY           SKY/WX    TMP DP  RH WIND       PRES   REMARKS
DULUTH         MOSUNNY   53  34  48 E12       30.18F
ELY            SUNNY     57  28  33 NW3       30.17F
HIBBING        SUNNY     56  29  35 E8        30.16F
EVELETH        MOSUNNY   59  30  33 NE8       30.17F
DULUTH HARBOR  SUNNY     43  37  81 NE12      30.23S
TWO HARBORS    SUNNY     54  41  62 E9        30.18F
SILVER BAY     SUNNY     52  36  54 E6        30.19F
GRAND MARAIS     N/A     44  34  67 E6        30.22F
G MARAIS ARPRT MOSUNNY   52  30  43 E8        30.19F
$$
MNZ029>031-032-039>041-046>048-054>057-064-012100-
   West Central Minnesota

CITY           SKY/WX    TMP DP  RH WIND       PRES   REMARKS
FERGUS FALLS   SUNNY     61  32  33 N6G18     30.16F
WHEATON        SUNNY     64  36  34 N10G20    30.20F
MORRIS         SUNNY     61  30  31 NE3G18    30.16F
ALEXANDRIA     SUNNY     60  29  30 NE12G20   30.17F
ELBOW LAKE     FAIR      57  32  38 NE12      30.19S
WADENA         SUNNY     59  32  36 N10       30.17S
GLENWOOD       SUNNY     61  28  29 NE13G21   30.17S
APPLETON       SUNNY     63  27  25 NE14G21   30.17F
BENSON         SUNNY     61  25  25 NE10G22   30.17S
ORTONVILLE     MOSUNNY   59  30  33 N12       30.18S
MADISON        SUNNY     59  30  33 NE10G21   30.17S
WILLMAR        FAIR      61  34  36 N15G23    30.17S
$$
MNZ033>034-036-042>043-049>051-058-059-012100-
   Central Minnesota

CITY           SKY/WX    TMP DP  RH WIND       PRES   REMARKS
ST CLOUD       SUNNY     60  32  34 NE13G21   30.14F
SAUK CENTRE    FAIR      58  32  38 NE8G20    30.17S
PAYNESVILLE    SUNNY     58  31  35 E3        30.16S
AITKIN         SUNNY     61  27  27 N9        30.15F
PINE RIVER     SUNNY     59  32  36 N9G16     30.19F
BRAINERD       SUNNY     59  29  31 E8        30.17F
STAPLES        SUNNY     61  27  27 NE9       30.16F
LONG PRAIRIE   FAIR      55  32  41 N8        30.17F
LITTLE FALLS   SUNNY     57  30  35 NE5       30.17S
LITCHFIELD     SUNNY     59  34  38 NE12G20   30.15S
BUFFALO        MOSUNNY   58  33  39 N7G17     30.14F
MAPLE LAKE     SUNNY     58  37  45 N13       30.15F
HUTCHINSON       N/A     58  39  49 N9        30.14F
$$
MNZ037-044-045-052-053-012100-
   East Central Minnesota

CITY           SKY/WX    TMP DP  RH WIND       PRES   REMARKS
PRINCETON      MOSUNNY   61  36  39 N13       30.14F
MORA           SUNNY     55  34  44 NE5       30.16F
CAMBRIDGE      SUNNY     61  39  44 NE9       30.12F
RUSH CITY      SUNNY     60  36  40 N9G20     30.13F
MOOSE LAKE     SUNNY     55  32  41 NE12G20   30.16S
HINCKLEY       FAIR      59  37  44 N5        30.14F
CLOQUET        SUNNY     54  30  40 E10G20    30.18F
MCGREGOR       MOSUNNY   59  32  36 NE7       30.16F
$$
MNZ071>073-080-081-089-090-097-098-012100-
   Southwest Minnesota

CITY           SKY/WX    TMP DP  RH WIND       PRES   REMARKS
MONTEVIDEO     SUNNY     61  32  33 E14G21    30.18S
GRANITE FALLS  MOSUNNY   60  36  40 N12       30.17F
CANBY          SUNNY     60  35  38 N7        30.18S
MARSHALL       SUNNY     57  33  40 NE13      30.16F
REDWOOD FALLS  MOSUNNY   60  33  36 N12G18    30.14F
OLIVIA         MOSUNNY   57  32  38 NE14G20   30.14S
PIPESTONE      PTSUNNY   55  34  44 N14G20    30.16S
WINDOM         MOSUNNY   57  36  44 N12G21    30.13S
WORTHINGTON    CLOUDY    53  37  54 NE14      30.14S
JACKSON        CLOUDY    54  37  54 N14G21    30.12S
TRACY          PTSUNNY   57  37  47 NE17      30.15S
SLAYTON        MOSUNNY   53  36  51 NE12G17   30.16S
$$
MNZ065>067-074>077-082>085-091>093-012100-
   South Central Minnesota

CITY           SKY/WX    TMP DP  RH WIND       PRES   REMARKS
MANKATO        PTSUNNY   57  36  44 N12G18    30.11S
NEW ULM          N/A     55  36  47 NE10G16   30.12F
ST JAMES       MOSUNNY   54  36  50 N10G17    30.13S
FAIRMONT       CLOUDY    55  37  50 NE13      30.10F
GLENCOE        PTSUNNY   58  39  49 N12       30.12F
FARIBAULT      PTSUNNY   57  36  44 NE10G16   30.09F
OWATONNA       CLOUDY    61  34  36 NE6G21    30.08S
WASECA         MOSUNNY   57  37  47 N12G22    30.10F
ALBERT LEA     CLOUDY    54  39  58 NE14G20   30.08S
$$
MNZ078>079-086>088-094>096-012100-
   Southeast Minnesota

CITY           SKY/WX    TMP DP  RH WIND       PRES   REMARKS
ROCHESTER      CLOUDY    57  39  51 NE13      30.08F
RED WING       MOSUNNY   63  30  29 NE10G17   30.07F
STANTON        MOSUNNY   63  33  33 NE12G20   30.07F
DODGE CENTER   CLOUDY    55  37  50 E7        30.07F
WINONA         CLOUDY    57  37  47 SE12      30.07S
AUSTIN         CLOUDY    54  37  54 NE10      30.07S
PRESTON        CLOUDY    53  39  60 NE10G18   30.07S
$$
ABBREVIATIONS USED IN REMARKS
   TC - TEMPERATURES IN CELSIUS
  WCI - WIND CHILL INDEX
   HX - HEAT INDEX
  VSB - VISIBILITY
$$



USA.gov is the U.S. government's official web portal to all federal, state and local government web resources and services.